This is the latest recevied weather packets stored in our database for station/object KO4ZGL-13. If no packets are shown the sender has not sent any weather packets the latest 10 day(s).
| Time | Temp. | Humidity | Pressure | Rain* | Wind** | Luminosity | Snow |
|---|---|---|---|---|---|---|---|
| 1787513617 | 36.11° C | 65% | 1013.4 hPa | 0 mm | - | 569 W/m² | - |
| 1787513313 | 36.11° C | 60% | 1013.7 hPa | 0 mm | - | 585 W/m² | - |
| 1787513010 | 35.56° C | 67% | 1013.5 hPa | 0 mm | - | 584 W/m² | - |
| 1787512706 | 35.56° C | 66% | 1013.4 hPa | 0 mm | - | 588 W/m² | - |
| 1787512401 | 36.11° C | 61% | 1013.6 hPa | 0 mm | - | 599 W/m² | - |
| 1787512096 | 36.11° C | 62% | 1013.7 hPa | 0 mm | - | 614 W/m² | - |
| 1787511791 | 36.11° C | 63% | 1013.9 hPa | 0 mm | - | 621 W/m² | - |
| 1787511491 | 35° C | 63% | 1013.8 hPa | 0 mm | - | 608 W/m² | - |
| 1787511191 | 35.56° C | 64% | 1013.9 hPa | 0 mm | - | 604 W/m² | - |
| 1787510890 | 35° C | 60% | 1013.9 hPa | 0 mm | - | 651 W/m² | - |
| 1787510586 | 35.56° C | 61% | 1014 hPa | 0 mm | - | 653 W/m² | - |
| 1787510281 | 35° C | 61% | 1014.1 hPa | 0 mm | - | 621 W/m² | - |
| 1787509977 | 35° C | 62% | 1014.1 hPa | 0 mm | - | 638 W/m² | - |
| 1787509672 | 34.44° C | 66% | 1014.2 hPa | 0 mm | - | 647 W/m² | - |
| 1787509369 | 34.44° C | 67% | 1014.1 hPa | 0 mm | - | 460 W/m² | - |
| 1787509068 | 35° C | 69% | 1014.2 hPa | 0 mm | - | 663 W/m² | - |
| 1787508765 | 35° C | 72% | 1014.1 hPa | 0 mm | - | 615 W/m² | - |
| 1787508465 | 35° C | 69% | 1014.1 hPa | 0 mm | - | 686 W/m² | - |
| 1787508162 | 34.44° C | 72% | 1014.2 hPa | 0 mm | - | 614 W/m² | - |
| 1787507852 | 35° C | 70% | 1014.4 hPa | 0 mm | - | 674 W/m² | - |
| 1787507548 | 35° C | 72% | 1014.3 hPa | 0 mm | - | 651 W/m² | - |
| 1787507244 | 34.44° C | 73% | 1014.6 hPa | 0 mm | - | 396 W/m² | - |
| 1787506939 | 33.89° C | 70% | 1014.3 hPa | 0 mm | - | 662 W/m² | - |
| 1787506635 | 33.89° C | 72% | 1014.5 hPa | 0 mm | - | 604 W/m² | - |
| 1787506332 | 33.89° C | 75% | 1014.7 hPa | 0 mm | - | 633 W/m² | - |
* Rain latest hour (hover to see other rain measurements)
** Current wind speed in m/s (hover to see current wind gust speed)